Weather History for KAKR - May, 2013

Change the Weather History Date:

Friday, May 3, 2013

  Actual Average (KCAK) Record (KCAK)
Temperature  
Mean Temperature 65 °F 55 °F  
Max Temperature 75 °F 66 °F 88 °F (2012)
Min Temperature 55 °F 45 °F 30 °F (1986)
Degree Days  
Heating Degree Days 0 10  
Month to date heating degree days 32  
Since 1 July heating degree days 5908  
Cooling Degree Days 0 0  
Month to date cooling degree days 0  
Year to date cooling degree days 6  
Growing Degree Days 15 (Base 50)    
Moisture  
Dew Point 38 °F    
Average Humidity 37    
Maximum Humidity 55    
Minimum Humidity 24    
Precipitation  
Precipitation 0.00 in 0.12 in 0.98 in (1984)
Month to date precipitation 0.37  
Year to date precipitation 11.82  
Snow  
Snow 0.00 in 0.00 in - ()
Month to date snowfall 0.0  
Since 1 July snowfall 47.4  
Snow Depth -    
Sea Level Pressure  
Sea Level Pressure 30.15 in    
Wind  
Wind Speed 6 mph (SE)    
Max Wind Speed 14 mph    
Max Gust Speed 22 mph    
Visibility 10 miles    
Events      
T = Trace of Precipitation, MM = Missing Value Source: NWS Daily Summary

Daily Weather History Graph

Daily Weather History Graph

Search for Another Location

Airport or City:

Trip Planner

Search our weather history database for the weather conditions in past years. The results will help you decide how hot, cold, wet, or windy it might be!

Date:

Astronomy

May. 03, 2013 Rise Set
Actual Time 6:20 AM EDT 8:25 PM EDT
Civil Twilight 5:50 AM EDT 8:55 PM EDT
Nautical Twilight 5:14 AM EDT 9:32 PM EDT
Astronomical Twilight 4:34 AM EDT 10:12 PM EDT
Moon 2:47 AM EDT (5/3) 2:15 PM EDT (5/3)
Length of Visible Light 15h 04m
Length of Day
14h 04m
Last Quarter, 37% of the Moon is Illuminated
May 3
Last Quarter
May 9
New
May 18
First Quarter
May 25
Full
May 31
Last Quarter

Hourly Weather History & Observations

Time (EDT) Temp. Dew Point Humidity Pressure Visibility Wind Dir Wind Speed Gust Speed Precip Events Conditions
12:54 AM 63.0 °F 33.1 °F 33% 30.17 in 10.0 mi Variable 5.8 mph - N/A   Clear
1:54 AM 61.0 °F 35.1 °F 38% 30.16 in 10.0 mi Variable 4.6 mph - N/A   Clear
2:54 AM 60.1 °F 36.0 °F 41% 30.16 in 10.0 mi East 4.6 mph - N/A   Clear
3:54 AM 57.9 °F 37.0 °F 46% 30.16 in 10.0 mi SE 5.8 mph - N/A   Clear
4:54 AM 57.0 °F 37.0 °F 47% 30.17 in 10.0 mi Calm Calm - N/A   Clear
5:54 AM 55.9 °F 37.9 °F 51% 30.17 in 10.0 mi ESE 4.6 mph - N/A   Clear
6:54 AM 55.0 °F 39.0 °F 55% 30.19 in 10.0 mi ESE 5.8 mph - N/A   Clear
7:54 AM 57.0 °F 39.0 °F 51% 30.20 in 10.0 mi SSE 6.9 mph - N/A   Clear
8:54 AM 60.1 °F 39.0 °F 46% 30.20 in 10.0 mi Variable 4.6 mph - N/A   Clear
9:54 AM 63.0 °F 37.0 °F 38% 30.20 in 10.0 mi SSE 8.1 mph 16.1 mph N/A   Clear
10:54 AM 66.9 °F 36.0 °F 32% 30.18 in 10.0 mi SSE 9.2 mph 17.3 mph N/A   Clear
11:54 AM 68.0 °F 33.1 °F 27% 30.18 in 10.0 mi SSE 10.4 mph 20.7 mph N/A   Clear
12:54 PM 71.1 °F 34.0 °F 26% 30.16 in 10.0 mi SE 10.4 mph 16.1 mph N/A   Clear
1:54 PM 72.0 °F 36.0 °F 27% 30.14 in 10.0 mi SE 9.2 mph 17.3 mph N/A   Clear
2:54 PM 73.0 °F 39.0 °F 29% 30.13 in 10.0 mi SSE 9.2 mph 20.7 mph N/A   Clear
3:54 PM 75.0 °F 39.0 °F 27% 30.11 in 10.0 mi SE 8.1 mph 17.3 mph N/A   Clear
4:54 PM 75.0 °F 36.0 °F 24% 30.09 in 10.0 mi SSE 13.8 mph 21.9 mph N/A   Clear
5:54 PM 75.0 °F 37.9 °F 26% 30.09 in 10.0 mi SSE 8.1 mph 17.3 mph N/A   Clear
6:54 PM 73.9 °F 39.9 °F 29% 30.09 in 10.0 mi Variable 4.6 mph - N/A   Clear
7:54 PM 72.0 °F 42.1 °F 34% 30.10 in 10.0 mi Variable 6.9 mph - N/A   Clear
8:54 PM 69.1 °F 41.0 °F 36% 30.11 in 10.0 mi Calm Calm - N/A   Clear
9:54 PM 66.9 °F 42.1 °F 40% 30.12 in 10.0 mi Variable 6.9 mph - N/A   Clear
10:54 PM 64.9 °F 42.1 °F 43% 30.13 in 10.0 mi Variable 3.5 mph - N/A   Clear
11:54 PM 63.0 °F 42.1 °F 46% 30.14 in 10.0 mi Variable 5.8 mph - N/A   Clear